Location: Newark
(57.7279°N, 5.6916°W)
Time: 09:37:38
(UTC+00:00)

N. Korean satellite - Pass Details

Date: 08 December 2019
Orbit: 454 x 508 km, 97.2° (Epoch: 19 January)

Event Time Altitude Azimuth Distance (km) Brightness Sun altitude
Rises 05:48:19 0° 20° (NNE) 2,582 10.4 -22.5°
Reaches altitude 10° 05:50:36 10° 31° (NNE) 1,685 9.6 -22.2°
Maximum altitude 05:53:51 31° 95° (E) 876 8.5 -21.7°
Drops below altitude 10° 05:57:01 10° 159° (SSE) 1,643 9.6 -21.3°
Sets 05:59:13 0° 170° (S) 2,506 10.4 -21.0°
